Lid_Strength_Index
10 13 14 12 12 12 13 14 14 12 10 11 12 12 11 9 10 10 10 11 10 10 9 9 9 9 9 9 9 8 8 7 7 6 6 6 5 4 4 4 3 3 4 4
12 14 11 10 11 12 13 14 15 13 10 12 13 13 11 10 10 11 11 11 11 11 11 11 11 11 11 11 10 10 9 9 8 8 7 7 7 6 6 5 4 4 4 5
13 12 10 11 12 13 14 15 14 15 13 13 14 15 13 11 11 11 11 11 12 12 12 13 13 12 12 12 11 11 10 10 9 9 8 8 8 8 8 8 7 6 5 6
12 12 12 13 13 13 15 13 14 14 16 19 15 20 15 12 13 13 13 13 13 13 13 12 13 13 13 13 12 12 11 11 10 10 10 10 10 10 9 9 8 7 6 6
12 13 13 14 13 12 14 13 14 15 17 17 16 19 16 13 15 14 13 13 13 12 12 13 13 12 13 13 13 13 13 12 11 11 11 11 11 10 10 9 9 9 8 7
12 12 12 12 11 12 12 14 14 14 16 20 15 16 16 15 14 14 13 12 12 12 12 12 12 12 13 13 13 13 13 13 12 12 11 12 12 12 12 11 11 10 10 9
12 12 11 11 13 12 13 15 18 19 20 19 14 16 14 13 12 12 12 12 13 13 13 13 13 13 13 13 13 13 13 13 13 13 13 12 13 13 13 13 12 13 12 11
15 16 12 11 12 13 13 13 18 22 21 19 15 18 14 12 11 11 12 12 12 13 13 13 13 13 14 13 13 13 13 14 14 13 13 13 13 13 13 13 13 13 12 12
14 14 11 11 10 11 13 14 11 16 17 19 16 14 12 11 12 12 13 13 14 14 13 13 13 13 13 13 13 14 14 14 14 14 14 14 13 14 14 14 14 13 13 12
11 15 10 11 10 11 12 11 15 15 22 23 17 16 14 12 11 12 13 14 13 13 14 14 13 13 13 13 14 14 14 15 15 15 15 14 14 14 14 14 15 15 15 13
9 12 13 10 12 12 12 13 12 13 16 20 20 17 11 12 12 13 13 13 13 14 15 14 14 13 13 14 15 15 14 14 15 15 15 14 14 14 14 15 15 15 16 15
10 13 16 14 9 9 11 12 12 16 18 16 16 16 10 11 12 12 13 12 13 13 14 14 14 14 14 14 14 15 14 13 12 13 13 14 13 13 13 14 16 16 16 16
10 14 18 16 13 11 13 12 11 12 14 17 19 17 10 11 12 12 12 13 13 12 13 14 14 14 14 13 12 12 12 13 12 13 13 14 14 14 14 14 17 17 16 16
8 12 15 17 14 12 15 13 11 12 16 16 16 14 11 10 11 12 13 13 13 14 13 12 13 13 12 12 12 12 12 11 12 12 13 14 14 13 14 14 16 16 16 15
9 16 13 13 12 12 13 14 14 14 13 15 14 13 11 9 9 12 11 12 13 13 13 13 12 13 13 12 12 12 11 11 11 12 13 13 13 12 12 13 15 16 16 16
10 19 15 20 13 13 14 14 13 13 13 12 12 13 9 10 12 13 13 13 13 13 12 12 12 12 12 12 12 12 12 12 11 12 12 12 12 12 12 13 13 14 15 15
14 16 21 23 15 17 21 17 14 14 13 13 15 13 14 14 13 14 14 13 13 12 12 12 11 11 11 10 10 11 11 10 11 11 11 11 11 11 12 12 12 13 14 14
14 17 18 23 22 28 17 14 15 15 15 14 14 16 15 14 14 14 13 13 13 11 11 10 10 10 9 9 10 10 10 10 10 11 11 10 10 11 11 11 12 12 12 14
12 14 21 24 26 19 16 15 16 17 18 15 16 15 14 13 14 15 10 10 10 10 9 9 9 9 9 10 10 10 10 10 11 11 11 11 11 12 12 12 12 12 12 13
14 13 17 26 27 29 19 16 13 14 22 16 15 15 14 13 18 14 10 9 9 9 9 9 9 10 10 11 11 11 12 12 13 12 12 13 13 14 14 14 14 13 13 14
23 23 20 19 21 21 16 14 13 22 18 14 14 12 12 13 12 10 9 9 9 9 10 10 11 11 11 11 12 14 14 14 14 14 15 16 16 17 18 17 17 17 17 17
20 23 25 24 27 25 13 14 17 13 11 12 10 10 11 10 10 9 9 10 10 11 11 11 13 13 13 13 14 15 16 15 16 17 18 19 20 20 20 21 21 20 20 20
21 17 21 19 19 13 12 12 9 9 11 9 10 9 9 10 10 10 11 11 11 12 12 13 15 15 15 14 15 18 17 17 18 20 21 21 21 21 22 23 23 23 22 22
16 14 18 17 13 12 10 9 8 8 9 8 8 9 9 10 10 11 12 12 12 13 13 15 16 17 17 16 16 18 18 19 21 22 22 22 23 23 23 23 23 24 24 24
15 14 16 14 11 10 9 8 8 7 8 8 9 9 10 11 12 12 13 14 14 14 15 16 17 17 18 18 18 19 19 20 22 23 23 23 23 23 23 22 23 22 22 22
11 12 13 14 10 9 9 8 8 8 9 9 10 12 11 12 13 14 15 15 16 17 17 18 18 18 19 19 19 20 20 22 23 24 24 24 24 24 23 24 23 19 17 16